When you browse on this site, cookies collect data to enhance your experience and personalize the content and advertising you see.
Visit our Privacy Policy to learn more. By continuing to use the site, you agree to this use of cookies and data.
  • In Österreich
  • Länderverzeichnis
  • Für 7 Tage
  • Wassertemperatur
  • Wetterkarte
  • News
  • Widgets
  • user-avatar
    Anmelden

    Stündliche Wetter Grabovo

    Heute, 28 Mai, Donnerstag

    Zeit Temperatur Niederschläge Wind Luftdruck Luftfeuchtigkeit
    00:00 +9°C° 0 mm 0 m/S 755 mmHg 89%
    01:00 +9°C° 0 mm 0 m/S 755 mmHg 90%
    02:00 +9°C° 0 mm 0 m/S 755 mmHg 90%
    03:00 +9°C° 0 mm 0 m/S 754 mmHg 90%
    04:00 +9°C° 0 mm 0 m/S 754 mmHg 90%
    05:00 +9°C° 0 mm 0 m/S 754 mmHg 90%
    06:00 +12°C° 0 mm 1 m/S 754 mmHg 86%
    07:00 +14°C° 0 mm 1 m/S 754 mmHg 81%
    08:00 +15°C° 0 mm 1 m/S 754 mmHg 76%
    09:00 +18°C° 0.1 mm 1 m/S 753 mmHg 69%
    10:00 +18°C° 0.1 mm 2 m/S 753 mmHg 62%
    11:00 +19°C° 0.1 mm 2 m/S 753 mmHg 54%
    12:00 +20°C° 0.2 mm 3 m/S 752 mmHg 55%
    13:00 +20°C° 0.2 mm 3 m/S 752 mmHg 55%
    14:00 +20°C° 0.2 mm 4 m/S 751 mmHg 55%
    15:00 +20°C° 0.4 mm 4 m/S 751 mmHg 60%
    16:00 +19°C° 0.4 mm 4 m/S 750 mmHg 65%
    17:00 +19°C° 0.4 mm 4 m/S 750 mmHg 69%
    18:00 +17°C° 0.2 mm 3 m/S 750 mmHg 76%
    19:00 +16°C° 0.2 mm 3 m/S 750 mmHg 82%
    20:00 +14°C° 0.2 mm 2 m/S 749 mmHg 88%
    21:00 +13°C° 0 mm 2 m/S 749 mmHg 90%
    22:00 +13°C° 0 mm 2 m/S 749 mmHg 92%
    23:00 +12°C° 0 mm 2 m/S 748 mmHg 94%

    Morgen, 29 Mai, Freitag

    Zeit Temperatur Niederschläge Wind Luftdruck Luftfeuchtigkeit
    00:00 +11°C° 1.1 mm 3 m/S 748 mmHg 94%
    01:00 +11°C° 1.1 mm 3 m/S 747 mmHg 95%
    02:00 +11°C° 1.1 mm 4 m/S 747 mmHg 96%
    03:00 +10°C° 2.9 mm 5 m/S 746 mmHg 95%
    04:00 +10°C° 2.9 mm 6 m/S 746 mmHg 94%
    05:00 +10°C° 2.9 mm 6 m/S 746 mmHg 94%
    06:00 +10°C° 0.3 mm 6 m/S 745 mmHg 94%
    07:00 +10°C° 0.3 mm 6 m/S 745 mmHg 94%
    08:00 +10°C° 0.3 mm 6 m/S 745 mmHg 94%
    09:00 +11°C° 0.2 mm 6 m/S 745 mmHg 92%
    10:00 +13°C° 0.2 mm 6 m/S 745 mmHg 91%
    11:00 +14°C° 0.2 mm 5 m/S 745 mmHg 90%
    12:00 +14°C° 0.9 mm 6 m/S 745 mmHg 89%
    13:00 +15°C° 0.9 mm 6 m/S 745 mmHg 88%
    14:00 +15°C° 0.9 mm 6 m/S 745 mmHg 86%
    15:00 +15°C° 1.6 mm 5 m/S 745 mmHg 88%
    16:00 +15°C° 1.6 mm 4 m/S 744 mmHg 90%
    17:00 +15°C° 1.6 mm 4 m/S 744 mmHg 91%
    18:00 +14°C° 0.6 mm 3 m/S 744 mmHg 92%
    19:00 +14°C° 0.6 mm 3 m/S 744 mmHg 93%
    20:00 +14°C° 0.6 mm 2 m/S 744 mmHg 94%
    21:00 +14°C° 0 mm 2 m/S 744 mmHg 95%
    22:00 +13°C° 0 mm 2 m/S 744 mmHg 96%
    23:00 +13°C° 0 mm 2 m/S 744 mmHg 96%

    übermorgen, 30 Mai, Samstag

    Zeit Temperatur Niederschläge Wind Luftdruck Luftfeuchtigkeit
    00:00 +13°C° 0 mm 2 m/S 744 mmHg 97%
    01:00 +13°C° 0 mm 2 m/S 744 mmHg 97%
    02:00 +12°C° 0 mm 2 m/S 744 mmHg 97%
    03:00 +12°C° 0 mm 2 m/S 744 mmHg 97%
    04:00 +12°C° 0 mm 2 m/S 744 mmHg 97%
    05:00 +12°C° 0 mm 2 m/S 744 mmHg 97%
    06:00 +13°C° 0.1 mm 2 m/S 744 mmHg 97%
    07:00 +14°C° 0.1 mm 2 m/S 744 mmHg 96%
    08:00 +14°C° 0.1 mm 3 m/S 744 mmHg 95%
    09:00 +16°C° 0.5 mm 3 m/S 743 mmHg 96%
    10:00 +16°C° 0.5 mm 3 m/S 743 mmHg 96%
    11:00 +15°C° 0.5 mm 4 m/S 743 mmHg 97%
    12:00 +17°C° 1 mm 4 m/S 742 mmHg 96%
    13:00 +16°C° 1 mm 5 m/S 742 mmHg 95%
    14:00 +17°C° 1 mm 5 m/S 741 mmHg 94%
    15:00 +16°C° 2.9 mm 6 m/S 741 mmHg 94%
    16:00 +16°C° 2.9 mm 6 m/S 740 mmHg 95%
    17:00 +16°C° 2.9 mm 7 m/S 740 mmHg 95%
    18:00 +16°C° 0.2 mm 7 m/S 739 mmHg 94%
    19:00 +16°C° 0.2 mm 8 m/S 739 mmHg 94%
    20:00 +16°C° 0.2 mm 8 m/S 739 mmHg 93%
    21:00 +16°C° 0.2 mm 8 m/S 739 mmHg 92%
    22:00 +16°C° 0.2 mm 8 m/S 739 mmHg 92%
    23:00 +16°C° 0.2 mm 8 m/S 739 mmHg 92%

    31 Mai, Sonntag

    Zeit Temperatur Niederschläge Wind Luftdruck Luftfeuchtigkeit
    00:00 +15°C° 0 mm 7 m/S 740 mmHg 92%
    01:00 +14°C° 0 mm 6 m/S 740 mmHg 93%
    02:00 +12°C° 0 mm 5 m/S 740 mmHg 93%
    03:00 +12°C° 0 mm 4 m/S 741 mmHg 93%
    04:00 +12°C° 0 mm 4 m/S 741 mmHg 93%
    05:00 +12°C° 0 mm 4 m/S 742 mmHg 93%
    06:00 +13°C° 0 mm 4 m/S 742 mmHg 90%
    07:00 +14°C° 0 mm 4 m/S 743 mmHg 86%
    08:00 +15°C° 0 mm 5 m/S 743 mmHg 82%
    09:00 +15°C° 0.2 mm 5 m/S 743 mmHg 83%
    10:00 +16°C° 0.2 mm 5 m/S 744 mmHg 84%
    11:00 +16°C° 0.2 mm 5 m/S 744 mmHg 85%
    12:00 +16°C° 0.5 mm 5 m/S 744 mmHg 87%
    13:00 +16°C° 0.5 mm 6 m/S 744 mmHg 88%
    14:00 +16°C° 0.5 mm 6 m/S 744 mmHg 89%
    15:00 +15°C° 0.3 mm 6 m/S 744 mmHg 90%
    16:00 +15°C° 0.3 mm 6 m/S 744 mmHg 91%
    17:00 +15°C° 0.3 mm 7 m/S 744 mmHg 91%
    18:00 +15°C° 0.1 mm 7 m/S 745 mmHg 91%
    19:00 +14°C° 0.1 mm 7 m/S 745 mmHg 90%
    20:00 +14°C° 0.1 mm 7 m/S 745 mmHg 90%
    21:00 +14°C° 0.1 mm 7 m/S 746 mmHg 89%
    22:00 +14°C° 0.1 mm 7 m/S 746 mmHg 89%
    23:00 +14°C° 0.1 mm 7 m/S 746 mmHg 89%

    1 Juni, Montag

    Zeit Temperatur Niederschläge Wind Luftdruck Luftfeuchtigkeit
    00:00 +13°C° 0 mm 6 m/S 746 mmHg 89%
    01:00 +13°C° 0 mm 6 m/S 747 mmHg 89%
    02:00 +13°C° 0 mm 6 m/S 747 mmHg 88%
    03:00 +13°C° 0 mm 6 m/S 747 mmHg 87%
    04:00 +13°C° 0 mm 6 m/S 747 mmHg 87%
    05:00 +13°C° 0 mm 6 m/S 747 mmHg 86%
    06:00 +13°C° 0 mm 6 m/S 748 mmHg 85%
    07:00 +13°C° 0 mm 6 m/S 748 mmHg 84%
    08:00 +14°C° 0 mm 6 m/S 748 mmHg 84%
    09:00 +14°C° 0.1 mm 7 m/S 749 mmHg 81%
    10:00 +15°C° 0.1 mm 7 m/S 749 mmHg 78%
    11:00 +16°C° 0.1 mm 8 m/S 749 mmHg 76%
    12:00 +17°C° 0.1 mm 8 m/S 749 mmHg 74%
    13:00 +17°C° 0.1 mm 7 m/S 749 mmHg 71%
    14:00 +17°C° 0.1 mm 7 m/S 749 mmHg 69%
    15:00 +17°C° 0 mm 7 m/S 749 mmHg 70%
    16:00 +17°C° 0 mm 7 m/S 749 mmHg 70%
    17:00 +17°C° 0 mm 6 m/S 749 mmHg 70%
    18:00 +16°C° 0 mm 6 m/S 749 mmHg 74%
    19:00 +15°C° 0 mm 5 m/S 749 mmHg 77%
    20:00 +14°C° 0 mm 4 m/S 750 mmHg 81%
    21:00 +14°C° 0 mm 4 m/S 750 mmHg 81%
    22:00 +13°C° 0 mm 4 m/S 750 mmHg 81%
    23:00 +12°C° 0 mm 4 m/S 750 mmHg 82%

    2 Juni, Dienstag

    Zeit Temperatur Niederschläge Wind Luftdruck Luftfeuchtigkeit
    00:00 +12°C° 0 mm 4 m/S 750 mmHg 82%
    01:00 +11°C° 0 mm 4 m/S 750 mmHg 83%
    02:00 +11°C° 0 mm 4 m/S 750 mmHg 84%
    03:00 +10°C° 0 mm 4 m/S 750 mmHg 84%
    04:00 +10°C° 0 mm 4 m/S 750 mmHg 85%
    05:00 +10°C° 0 mm 4 m/S 751 mmHg 85%
    06:00 +11°C° 0 mm 4 m/S 751 mmHg 79%
    07:00 +13°C° 0 mm 5 m/S 751 mmHg 73%
    08:00 +15°C° 0 mm 5 m/S 751 mmHg 66%
    09:00 +16°C° 0 mm 5 m/S 751 mmHg 62%
    10:00 +17°C° 0 mm 5 m/S 751 mmHg 58%
    11:00 +19°C° 0 mm 5 m/S 752 mmHg 53%
    12:00 +20°C° 0 mm 5 m/S 751 mmHg 53%
    13:00 +20°C° 0 mm 5 m/S 751 mmHg 53%
    14:00 +20°C° 0 mm 4 m/S 751 mmHg 53%
    15:00 +20°C° 0.1 mm 4 m/S 751 mmHg 56%
    16:00 +20°C° 0.1 mm 4 m/S 751 mmHg 59%
    17:00 +19°C° 0.1 mm 4 m/S 750 mmHg 61%
    18:00 +18°C° 0 mm 3 m/S 750 mmHg 68%
    19:00 +16°C° 0 mm 3 m/S 750 mmHg 74%
    20:00 +15°C° 0 mm 2 m/S 750 mmHg 80%
    21:00 +14°C° 0 mm 2 m/S 751 mmHg 84%
    22:00 +13°C° 0 mm 2 m/S 751 mmHg 87%
    23:00 +12°C° 0 mm 2 m/S 751 mmHg 90%
    Mehr zeigen